MUOS 1

operational
NORAD ID: 38093 Int'l Des: 2012-009 Owner: SPAWSD Country: US
HEOCIRCULARGSO

Über MUOS 1

Beschreibung wird geladen...

Live-Position

3D-Globus wird geladen...

Nächste Überflüge

Höhenverlauf

Altitude vs Time

uPlot chart will show altitude changes over time

Zweizeiliger Elementsatz

1 38093U 12009A 25278.47577985 -.00000122 00000-0 00000+0 0 9996
2 38093 4.9569 47.0554 0051171 3.0664 35.6180 1.00271746 49898
Epoch: 5. Okt. 2025 • Age: 16 hours

Aktueller Status

Höhe 35779.0 km
Geschwindigkeit 3.08 km/s
Subsatellitenpunkt -4.93°S, 100.54°W
Startdatum 24. Feb. 2012
Alter 13.6 years
Typ other

Technische Details

Klassifizierung Payload
Masse 6740.00 kg
Trockenmasse 3812.00 kg
Gesamtmasse 6740.00 kg
Länge 7.90 m
Durchmesser 4.30 m
Spannweite 28.70 m
Form Box + 2 Pan + Dish
Hersteller LMSS/LMCSS
Bus-Typ A2100
Phasenstatus In Orbit
Besitzer/Staat SPAWSD/US

Große Konstellationen

Loading constellations...